Location: Burland Observatory
(39.4088°N, 105.4217°W)
Time: 03:12:09
(UTC-07:00)

Tiros 1 - All Passes

Search period start: 10 December 2019 00:00
Search period end: 20 December 2019 00:00
Orbit: 630 x 664 km, 48.4° (Epoch: 10 December)

Date Brightness Start Highest point End Pass type
(mag) Time Alt. Az. Time Alt. Az. Time Alt. Az.
10 Dec - 05:10:38 10° SSW 05:14:59 38° SE 05:19:19 10° ENE visible
10 Dec - 06:52:32 10° WSW 06:57:07 51° NNW 07:01:40 10° NE daylight
10 Dec - 08:36:03 10° WNW 08:40:03 27° N 08:44:00 10° NE daylight
10 Dec - 10:18:54 10° NW 10:23:10 34° NNE 10:27:23 10° E daylight
10 Dec - 12:01:02 10° WNW 12:05:40 76° SSW 12:10:15 10° SE daylight
10 Dec - 13:44:57 10° W 13:47:14 14° SW 13:49:30 10° SSW daylight
11 Dec - 03:56:31 10° SSE 03:59:16 15° SE 04:02:01 10° E visible
11 Dec - 05:36:12 10° SW 05:40:55 81° SSE 05:45:36 10° ENE visible
11 Dec - 07:19:12 10° W 07:23:28 34° NNW 07:27:43 10° NE daylight
11 Dec - 09:02:36 10° NW 09:06:35 27° N 09:10:33 10° ENE daylight
11 Dec - 10:44:57 10° NW 10:49:30 53° NNE 10:54:01 10° ESE daylight
11 Dec - 12:27:23 10° WNW 12:31:33 34° SW 12:35:43 10° SSE daylight
12 Dec - 04:20:41 10° SSW 04:24:58 35° SE 04:29:14 10° ENE visible
12 Dec - 06:02:26 10° WSW 06:07:03 54° NNW 06:11:39 10° NE visible
12 Dec - 07:45:56 10° WNW 07:49:57 27° N 07:53:57 10° NE daylight
12 Dec - 09:28:51 10° NW 09:33:06 33° NNE 09:37:17 10° E daylight
12 Dec - 11:10:59 10° WNW 11:15:39 82° SSW 11:20:14 10° SE daylight
12 Dec - 12:54:38 10° W 12:57:15 15° SW 12:59:52 10° SSW daylight
13 Dec - 03:06:49 10° SSE 03:09:16 14° SE 03:11:44 10° E visible
13 Dec - 04:46:09 10° SW 04:50:52 76° SE 04:55:34 10° ENE visible
13 Dec - 06:29:04 10° W 06:33:23 35° NNW 06:37:41 10° NE visible
13 Dec - 08:12:31 10° NW 08:16:30 27° N 08:20:28 10° ENE daylight
13 Dec - 09:54:54 10° NW 09:59:26 51° NNE 10:03:56 10° E daylight
13 Dec - 11:37:17 10° WNW 11:41:33 37° SW 11:45:47 10° SSE daylight
14 Dec - 03:30:45 10° SSW 03:34:57 32° SE 03:39:09 10° ENE visible
14 Dec - 05:12:20 10° WSW 05:16:59 58° NNW 05:21:38 10° NE visible
14 Dec - 06:55:49 10° WNW 06:59:52 28° N 07:03:54 10° NE daylight
14 Dec - 08:38:47 10° NW 08:43:01 32° NNE 08:47:11 10° ENE daylight
14 Dec - 10:20:56 10° WNW 10:25:37 88° SSW 10:30:13 10° SE daylight
14 Dec - 12:04:22 10° W 12:07:16 17° SW 12:10:09 10° S daylight
15 Dec - 02:17:11 10° SSE 02:19:16 13° SE 02:21:23 10° ESE night (unlit)
15 Dec - 03:56:07 10° SW 04:00:50 70° SE 04:05:31 10° ENE visible
15 Dec - 05:38:56 10° W 05:43:19 36° NNW 05:47:39 10° NE visible
15 Dec - 07:22:25 10° NW 07:26:25 27° N 07:30:23 10° ENE daylight
15 Dec - 09:04:52 10° NW 09:09:23 48° NNE 09:13:52 10° E daylight
15 Dec - 10:47:12 10° WNW 10:51:33 41° SW 10:55:52 10° SSE daylight
16 Dec - 02:40:49 10° SSW 02:44:56 30° SE 02:49:03 10° ENE night (unlit)
16 Dec - 04:22:14 10° WSW 04:26:56 61° NNW 04:31:36 10° NE visible
16 Dec - 06:05:41 10° WNW 06:09:47 28° N 06:13:51 10° NE visible
16 Dec - 07:48:44 10° NW 07:52:56 32° NNE 07:57:06 10° ENE daylight
16 Dec - 09:30:53 10° WNW 09:35:34 87° NNE 09:40:11 10° ESE daylight
16 Dec - 11:14:08 10° W 11:17:17 18° SW 11:20:24 10° S daylight
17 Dec - 01:27:39 10° SSE 01:29:17 12° SE 01:30:55 10° ESE night (unlit)
17 Dec - 03:06:05 10° SW 03:10:48 65° SE 03:15:29 10° ENE visible
17 Dec - 04:48:48 10° W 04:53:14 38° NNW 04:57:38 10° NE visible
17 Dec - 06:32:19 10° WNW 06:36:19 27° N 06:40:18 10° ENE visible
17 Dec - 08:14:49 10° NW 08:19:20 46° NNE 08:23:47 10° E daylight
17 Dec - 09:57:06 10° WNW 10:01:33 44° SW 10:05:55 10° SSE daylight
18 Dec - 01:50:54 10° SSW 01:54:55 27° SE 01:58:56 10° ENE night (unlit)
18 Dec - 03:32:08 10° WSW 03:36:52 66° NNW 03:41:35 10° NE visible
18 Dec - 05:15:33 10° WNW 05:19:41 29° N 05:23:48 10° NE visible
18 Dec - 06:58:39 10° NW 07:02:51 31° NNE 07:07:00 10° ENE daylight
18 Dec - 08:40:50 10° WNW 08:45:32 81° NNE 08:50:09 10° ESE daylight
18 Dec - 10:23:56 10° W 10:27:17 20° SW 10:30:37 10° S daylight
19 Dec - 00:38:25 10° SE 00:39:17 10° SE 00:40:10 10° ESE night (unlit)
19 Dec - 02:16:04 10° SW 02:20:46 60° SE 02:25:26 10° ENE night (unlit)
19 Dec - 03:58:41 10° W 04:03:09 40° NNW 04:07:36 10° NE visible
19 Dec - 05:42:12 10° WNW 05:46:13 27° N 05:50:13 10° ENE visible
19 Dec - 07:24:46 10° NW 07:29:16 43° NNE 07:33:42 10° E daylight
19 Dec - 09:07:01 10° WNW 09:11:32 48° SW 09:15:58 10° SE daylight
